Location: *
(49.4547°N, 7.9131°E)
Time: 02:03:16
(UTC+00:00)

Cosmos 2341 Rocket - Pass Details

Date: 22 September 2019
Orbit: 967 x 1005 km, 82.9° (Epoch: 12 October)

Event Time Altitude Azimuth Distance (km) Brightness Sun altitude
Rises 18:30:07 0° 351° (N) 3,691 7.3 -11.0°
Reaches altitude 10° 18:32:39 10° 353° (N) 2,735 6.6 -11.4°
Maximum altitude 18:38:55 76° 80° (E) 1,003 3.9 -12.3°
Drops below altitude 10° 18:45:07 10° 166° (SSE) 2,703 6.0 -13.3°
Sets 18:47:36 0° 168° (SSE) 3,645 6.7 -13.7°
